EET,Max TemperatureF,Mean TemperatureF,Min TemperatureF,Max Dew PointF,MeanDew PointF,Min DewpointF,Max Humidity, Mean Humidity, Min Humidity, Max Sea Level PressureIn, Mean Sea Level PressureIn, Min Sea Level PressureIn, Max VisibilityMiles, Mean VisibilityMiles, Min VisibilityMiles, Max Wind SpeedMPH, Mean Wind SpeedMPH, Max Gust SpeedMPH,PrecipitationIn, CloudCover, Events, WindDirDegrees
2012-10-1,86,75,64,68,61,55,88,63,40,30.12,30.06,30.04,,,,10,6,,0.00,,,197
2012-10-2,78,68,59,68,64,57,94,78,54,30.06,30.01,29.95,6,6,6,13,5,,0.00,1,,173
2012-10-3,80,71,62,68,64,59,94,78,61,29.92,29.90,29.86,6,6,5,8,2,,0.00,1,,211
2012-10-4,80,72,64,68,62,59,88,73,51,29.95,29.93,29.92,6,6,6,10,4,,0.00,3,Rain-Thunderstorm,180
2012-10-5,80,70,59,64,60,55,88,68,45,30.06,30.01,29.95,6,6,6,10,4,,0.00,1,,234
2012-10-6,80,68,55,63,58,52,88,64,42,30.15,30.10,30.06,6,6,6,10,3,,0.00,1,,196
2012-10-7,78,68,57,66,62,52,94,71,54,30.01,29.93,29.83,6,6,6,9,4,,0.00,1,,230
2012-10-8,78,69,60,63,56,50,94,65,39,29.92,29.82,29.77,6,6,6,21,3,,0.00,2,,101
2012-10-9,69,60,50,54,46,39,82,58,40,30.01,29.96,29.89,6,6,6,12,6,,0.00,3,,79
2012-10-10,71,60,48,57,51,45,87,68,46,29.89,29.86,29.83,6,6,6,9,4,,0.00,6,,83
2012-10-11,75,64,53,57,52,46,88,63,36,29.89,29.86,29.83,6,6,6,12,3,,0.00,2,,226
2012-10-12,75,63,51,59,56,46,88,73,53,30.01,29.99,29.98,6,6,6,9,4,,0.00,3,,198
2012-10-13,77,66,55,64,60,52,94,76,64,29.95,29.93,29.92,6,6,6,9,3,,0.00,3,,142
2012-10-14,78,71,64,68,65,63,94,78,65,29.89,29.87,29.83,6,6,6,9,5,,0.00,4,,266
2012-10-15,78,72,66,68,65,63,88,79,61,29.98,29.91,29.86,6,6,6,13,6,,0.00,4,Thunderstorm,287
2012-10-16,77,68,59,66,62,55,94,78,65,30.09,30.04,30.01,6,6,6,9,4,,0.00,5,,21
2012-10-17,78,68,59,68,64,59,100,79,57,30.09,30.07,30.04,6,5,0,9,3,,0.00,1,Fog,223
2012-10-18,80,70,59,57,51,45,82,55,28,30.21,30.16,30.12,6,6,6,13,6,,0.00,1,,122
2012-10-19,77,64,51,59,54,50,94,67,41,30.21,30.17,30.12,,,,10,3,,0.00,,,136
2012-10-20,73,65,57,59,55,52,83,70,53,30.12,30.08,30.04,6,6,6,8,6,,0.00,1,,90
2012-10-21,75,63,51,54,48,45,82,49,34,30.06,30.02,29.98,6,6,6,17,4,,0.00,2,,82
2012-10-22,69,64,59,59,55,50,88,71,56,30.04,30.01,29.98,6,6,3,9,2,,0.00,6,Rain,311
2012-10-23,71,65,59,57,54,48,88,68,43,30.04,30.02,30.01,6,6,6,16,5,,0.00,6,,89
2012-10-24,71,62,53,52,48,43,82,58,35,30.04,30.02,30.01,6,6,6,13,5,,0.00,2,,90
2012-10-25,69,58,48,55,50,45,88,71,49,30.01,29.95,29.89,6,6,6,9,4,,0.00,1,,149
2012-10-26,69,60,50,59,54,46,94,79,64,29.89,29.85,29.83,6,6,6,14,6,,0.00,1,,65
2012-10-27,73,64,55,64,59,55,100,83,65,29.83,29.76,29.68,6,6,5,12,4,,0.00,5,Rain,121
2012-10-28,73,70,68,68,67,66,94,90,83,29.74,29.71,29.68,6,4,2,20,13,30,0.00,6,Rain,215
2012-10-29,71,66,60,63,61,59,94,83,69,29.71,29.63,29.56,6,6,4,26,15,31,0.00,7,Rain-Thunderstorm,202
2012-10-30,68,62,53,48,44,41,72,52,40,29.86,29.74,29.59,6,6,6,21,15,33,0.00,1,,271
2012-10-31,64,57,50,54,49,45,87,71,59,29.98,29.97,29.92,6,6,6,12,7,,0.00,4,,59